This is the latest recevied weather packets stored in our database for station/object DL0BB-10. If no packets are shown the sender has not sent any weather packets the latest 10 day(s).
| Time | Temp. | Humidity | Pressure | Rain* | Wind** | Luminosity | Snow |
|---|---|---|---|---|---|---|---|
| 1787453958 | 25° C | 36% | 1022.7 hPa | - | - | - | - |
| 1787453062 | 25.56° C | 35% | 1022.8 hPa | - | - | - | - |
| 1787452162 | 26.11° C | 34% | 1022.8 hPa | - | - | - | - |
| 1787451262 | 25° C | 36% | 1022.9 hPa | - | - | - | - |
| 1787450362 | 25° C | 36% | 1022.7 hPa | - | - | - | - |
| 1787449462 | 25.56° C | 35% | 1022.7 hPa | - | - | - | - |
| 1787448562 | 26.11° C | 34% | 1022.6 hPa | - | - | - | - |
| 1787447662 | 25° C | 36% | 1022.8 hPa | - | - | - | - |
| 1787446762 | 25° C | 36% | 1022.8 hPa | - | - | - | - |
| 1787445862 | 25.56° C | 35% | 1022.8 hPa | - | - | - | - |
| 1787444962 | 26.11° C | 34% | 1022.8 hPa | - | - | - | - |
| 1787444061 | 25° C | 37% | 1022.6 hPa | - | - | - | - |
| 1787443161 | 25.56° C | 36% | 1022.8 hPa | - | - | - | - |
| 1787442261 | 26.11° C | 36% | 1022.8 hPa | - | - | - | - |
| 1787441361 | 26.67° C | 35% | 1022.9 hPa | - | - | - | - |
| 1787440460 | 25.56° C | 37% | 1023 hPa | - | - | - | - |
| 1787439559 | 25.56° C | 36% | 1022.8 hPa | - | - | - | - |
| 1787438659 | 26.11° C | 35% | 1022.8 hPa | - | - | - | - |
| 1787437759 | 26.67° C | 35% | 1022.7 hPa | - | - | - | - |
| 1787436859 | 25.56° C | 37% | 1022.7 hPa | - | - | - | - |
| 1787435959 | 26.11° C | 36% | 1022.6 hPa | - | - | - | - |
| 1787435059 | 26.67° C | 35% | 1022.6 hPa | - | - | - | - |
| 1787434159 | 26.67° C | 35% | 1022.6 hPa | - | - | - | - |
| 1787432358 | 26.11° C | 36% | 1022.5 hPa | - | - | - | - |
| 1787431461 | 26.67° C | 35% | 1022.4 hPa | - | - | - | - |
* Rain since midnight (hover to see other rain measurements)
** Current wind speed in m/s (hover to see current wind gust speed)